Showing default

YAOGAN-30 E, 43029

Orbit data source: Space-Track

YAOGAN-30 E, 43029 is a payload satellite owned by PLA SSF (CN) in LEO that was launched on Fri, 24 Nov 2017 UTC via a CHANG ZHENG 2C launch vehicle from the Xichang Space Center, China (XSC). Payload-class satellites include a variety of spacecraft equipped with specific instruments for various scientific and technological missions. These include communications satellites like Starlink; space stations such as the ISS; scientific satellites like the Hubble; Earth observation satellites from companies like Planet Labs, Umbra, and HawkEye 360; GPS; miniature CubeSats for education and research; and military/defense satellites.

Loading next visibility...
Identifier
43029, 2017-075B
Orbit
LEO
Country
Flag of CNCN / PRC
Related business
Manufacturer
SECM
Mission
Operational Defense Sigint
Bus & Motor
Unknown
Mass
~500 kg wet, ~500 kg dry
Launch date (UTC)
2017-11-24 (8 years ago)
Launch vehicle
CHANG ZHENG 2C
Launch site
Xichang Space Center, China (XSC)
Object type
Payload
Rocket body
Debris
Shape & HBR
Box + 2 Pan, 0.5 m
Radar Cross Section
0.446 m², Large (>1 m²)

Expand to show TLE details & history
Last TLE update: 6 hours ago

TLE from 6 hours ago
0 YAOGAN-30 E
1 43029U 17075B   25347.03982603  .00006003  00000-0  45686-3 0  9991
2 43029  34.9956 323.8564 0002293  24.0673 336.0142 15.01489237439358
Epoch: 2025-12-13T00:57Z
TLE epoch observation values (Epoch: 2025-12-13T00:57:20.968Z)
Latitude
-0.00002°
Longitude
-132.45381°
Altitude
559.767 km
Speed
7.585 km/s
True Right ascension
21h 35m 25s
True Declination
0° 00' 00"
Sunlit
Object was in daylight at epoch
Visualization orbit readout
Latitude
Unknown
Longitude
Unknown
Altitude
Unknown
Speed
Unknown
Apparent Right ascension
Unknown
Apparent Declination
Unknown
Sunlit
N/A
Visualization observer readout
Local Sidereal Time
05:28:43
Azimuth
Unknown
Elevation
Unknown
Doppler factor
Unknown
Orbital elements
Apogee altitude
567.116 km
Perigee altitude
563.931 km
Semi-major axis
6,943.661 km
Eccentricity
0.00023
Inclination
34.9956°
RAAN
323.8564°
Arg. of periapsis
24.0673°
True anomaly
336.00352°
Mean anomaly
336.0142°
Eccentric anomaly
336.00886°
Mean motion
3.75112 °/min
Orbital period
95.97 mins
BSTAR
0.00045686
Loading maneuver chart data...
Computing Atmospheric mass density...
Loading historical data...
Loading historical data...
Loading historical data...
Loading historical data...
Loading historical data...
Loading historical data...
Loading historical data...
Other satellites on launch #75 in the year 2017 (2017-11-24 UTC)

Documentation

Showing up to 5 results
|